[[{"header":{"parameterUnit":"m.s-1","parameterCategory":1,"la1":30.2991,"la2":30.254,"lo1":-89.0895,"lo2":-89.0444,"dy":0.0017,"dx":0.0017,"nx":28,"ny":28,"refTime":"2024-06-04T09:00:00:Z","depth":0,"parameterNumber":2,"parameterNumberName":"U-component_of_WINDS"},"data":[0,0,0,0,0,0,0,0,0,0,0,0,0,0,0,0,0,0,0,0,0,0,0,0,0,0,0,0,0,0,0,0,0,0,0,0,0,0,0,0,0,0,0,0,0,0,0,0,0,0,0,0,0,0,0,0,0,0,-0.9721,-0.9721,0,-0.9719,-0.9719,-0.9719,-0.9708,-0.9707,-0.9707,-0.9707,-0.9705,-0.9705,-0.9705,0,0,0,0,0,0,0,0,0,0,0,0,0,-0.9718,-0.9718,-0.9721,-0.9721,-0.9721,-0.9719,-0.9719,-0.9719,-0.9708,-0.9707,-0.9707,-0.9707,-0.9705,-0.9705,-0.9706,0,0,0,0,0,0,0,0,0,0,0,0,0,-0.9718,-0.9718,-0.9721,-0.9715,-0.9715,-0.9719,-0.9719,-0.9719,-0.9708,-0.9707,-0.9707,-0.9707,-0.9705,-0.9705,-0.9706,-0.9715,0,0,-0.9706,-0.9707,0,0,0,0,0,0,0,0,-0.9718,-0.9718,-0.9716,-0.9716,-0.9715,-0.9713,-0.9717,-0.9717,-0.9708,-0.971,-0.9707,-0.9706,-0.9708,-0.9708,-0.9708,-0.9715,-0.9715,-0.9706,-0.9707,-0.9707,-0.9707,0,0,0,0,0,0,0,-0.9718,-0.9718,-0.972,-0.9716,-0.9716,-0.9713,-0.9713,-0.9717,-0.9712,-0.971,-0.9709,-0.9709,-0.9708,-0.9708,-0.9708,-0.9715,-0.9706,-0.9707,-0.9707,-0.9707,-0.9729,-0.9729,0,0,0,0,0,0,-0.9718,-0.9718,-0.972,-0.972,-0.9715,-0.9714,-0.9713,-0.9714,-0.9711,-0.9711,-0.9709,-0.9709,-0.9708,-0.9708,-0.9708,-0.9719,-0.9707,-0.9707,-0.9707,-0.9728,-0.9729,-0.9729,0,0,0,0,0,0,-0.9718,-0.9719,-0.972,-0.9719,-0.9719,-0.9714,-0.9715,-0.9714,-0.9715,-0.9711,-0.971,-0.9711,-0.9708,-0.9708,-0.9713,-0.9719,-0.9707,-0.9707,-0.9728,-0.9728,-0.9729,-0.974,0,0,0,0,0,0,-0.9718,-0.9719,-0.9722,-0.9719,-0.9719,-0.9725,-0.9716,-0.9714,-0.9715,-0.9714,-0.9712,-0.9711,-0.9707,-0.9713,-0.9714,-0.9719,-0.9708,-0.9727,-0.9728,-0.9729,-0.9739,-0.9741,-0.9743,0,0,0,0,0,-0.9718,-0.9726,-0.9722,-0.9723,-0.9723,-0.9726,-0.9726,-0.9721,-0.9716,-0.9719,-0.9717,-0.9711,-0.9718,-0.9714,-0.9714,-0.972,-0.9727,-0.9728,-0.9729,-0.9739,-0.9741,-0.9743,0,0,0,0,0,0,-0.973,-0.9725,-0.9721,-0.9728,-0.9727,-0.9724,-0.9728,-0.9723,-0.9724,-0.9723,-0.9717,-0.9717,-0.9723,-0.9722,-0.9717,-0.9728,-0.9722,-0.9723,-0.9729,-0.9731,-0.9732,-0.9732,-0.9708,0,0,0,0,0,-0.9734,-0.9736,-0.9731,-0.9738,-0.9738,-0.9733,-0.9734,-0.973,-0.9729,-0.9729,-0.9727,-0.9726,-0.9728,-0.973,-0.9731,-0.9739,-0.9738,-0.9743,-0.9745,-0.9746,-0.9747,-0.9751,-0.9753,-0.9732,-0.9732,-0.9732,0,0,-0.9741,-0.9738,-0.974,-0.974,-0.9739,-0.9742,-0.9733,-0.9736,-0.9738,-0.9729,-0.9734,-0.9733,-0.9732,-0.9738,-0.9741,-0.9738,-0.9753,-0.9747,-0.9749,-0.9749,-0.9752,-0.9754,-0.9756,-0.9733,-0.9733,-0.9732,0,0,-0.9755,-0.9753,-0.9758,-0.9757,-0.9755,-0.9752,-0.9753,-0.975,-0.9749,-0.9753,-0.9747,-0.9749,-0.9753,-0.9752,-0.9753,-0.9766,-0.9761,-0.9767,-0.9775,-0.9779,-0.9781,-0.9782,-0.9786,-0.9788,-0.9768,-0.9768,-0.9768,0,-0.9764,-0.9767,-0.9761,-0.9765,-0.9765,-0.9757,-0.9762,-0.9761,-0.976,-0.9761,-0.9757,-0.9761,-0.976,-0.9766,-0.9769,-0.977,-0.9771,-0.9767,-0.9781,-0.9782,-0.9783,-0.9787,-0.9789,-0.9768,-0.9768,-0.9768,-0.9768,0,-0.9778,-0.9781,-0.9785,-0.9783,-0.9784,-0.9788,-0.9783,-0.9785,-0.9781,-0.9778,-0.9783,-0.9781,-0.9782,-0.9783,-0.978,-0.9789,-0.9786,-0.9782,-0.9775,-0.9786,-0.979,-0.9791,-0.9769,-0.9769,-0.9769,-0.9769,0,0,-0.98,-0.9795,-0.9797,-0.9796,-0.9793,-0.9795,-0.9799,-0.9799,-0.98,-0.98,-0.9803,-0.9806,-0.9801,-0.9801,-0.9798,-0.9801,-0.9811,-0.9796,-0.9796,-0.9798,-0.982,-0.9824,-0.9826,-0.9808,-0.9808,-0.9809,-0.982,0,-0.9813,-0.9819,-0.9814,-0.982,-0.9822,-0.9815,-0.9818,-0.9817,-0.9814,-0.9816,-0.9813,-0.9815,-0.9809,-0.9809,-0.9812,-0.9809,-0.9815,-0.9808,-0.9811,-0.9811,-0.981,-0.9828,-0.9831,-0.9842,-0.9822,-0.9822,-0.9822,0,-0.9829,-0.9829,-0.9836,-0.9832,-0.9833,-0.9836,-0.9835,-0.9837,-0.9835,-0.9833,-0.9833,-0.9828,-0.9832,-0.9825,-0.983,-0.9825,-0.9826,-0.9824,-0.9825,-0.9824,-0.9817,-0.9827,-0.9846,-0.9847,-0.9825,-0.9824,-0.9824,0,-0.9844,-0.9845,-0.9849,-0.9849,-0.9845,-0.9847,-0.9845,-0.9843,-0.9844,-0.9844,-0.9844,-0.9844,-0.9844,-0.9845,-0.9841,-0.9836,-0.9846,-0.9839,-0.9844,-0.9844,-0.9846,-0.9846,-0.9864,-0.9847,-0.9847,-0.9847,-0.9847,0,-0.9859,-0.9863,-0.9856,-0.9858,-0.9863,-0.9857,-0.9861,-0.9859,-0.9857,-0.9859,-0.9853,-0.9855,-0.9849,-0.9851,-0.9848,-0.9852,-0.9852,-0.985,-0.9849,-0.985,-0.9851,-0.9851,-0.9849,-0.9847,-0.9847,-0.9847,-0.9847,0,-0.9876,-0.9871,-0.9875,-0.9871,-0.9869,-0.9873,-0.9869,-0.9871,-0.9868,-0.9871,-0.9871,-0.9866,-0.9868,-0.9863,-0.9864,-0.9862,-0.9868,-0.9866,-0.9868,-0.9867,-0.9872,-0.9872,-0.9891,-0.9893,-0.9875,-0.9875,-0.9875,0,-0.9886,-0.9889,-0.9885,-0.9885,-0.9884,-0.9885,-0.9885,-0.9879,-0.988,-0.9878,-0.988,-0.9881,-0.9881,-0.9883,-0.988,-0.988,-0.9878,-0.9885,-0.9878,-0.9879,-0.9878,-0.9877,-0.9877,-0.9886,-0.9886,-0.9887,-0.9887,0,-0.9904,-0.9901,-0.9901,-0.99,-0.99,-0.99,-0.9898,-0.9899,-0.9893,-0.9894,-0.9895,-0.9895,-0.9895,-0.9896,-0.9895,-0.9894,-0.9889,-0.9889,-0.989,-0.9891,-0.9892,-0.9891,-0.9871,-0.9888,-0.9888,-0.9888,-0.9888,-0.9888,-0.9917,-0.9919,-0.9916,-0.9916,-0.9915,-0.9914,-0.9915,-0.9912,-0.9912,-0.9912,-0.9908,-0.991,-0.9908,-0.9907,-0.9906,-0.9907,-0.9904,-0.9906,-0.9906,-0.9906,-0.9907,-0.9892,-0.9907,-0.9907,-0.9907,-0.9907,-0.9907,0,-0.9934,-0.9932,-0.9932,-0.993,-0.993,-0.9925,-0.9923,-0.9924,-0.9925,-0.9923,-0.9923,-0.9924,-0.9925,-0.9921,-0.9921,-0.9923,-0.992,-0.9923,-0.9923,-0.9922,-0.991,-0.9909,-0.9925,-0.9925,-0.9925,-0.9925,-0.9925,-0.9925,-0.9943,-0.9946,-0.9943,-0.9945,-0.9942,-0.9943,-0.9943,-0.9941,-0.994,-0.9941,-0.9941,-0.9938,-0.9936,-0.9936,-0.9936,-0.9935,-0.9935,-0.9938,-0.9936,-0.9925,-0.9923,-0.9921,-0.992,-0.9938,-0.9938,-0.9948,-0.9948,-0.9948]},{"header":{"parameterUnit":"m.s-1","parameterCategory":1,"la1":30.2991,"la2":30.254,"lo1":-89.0895,"lo2":-89.0444,"dy":0.0017,"dx":0.0017,"nx":28,"ny":28,"refTime":"2024-06-04T09:00:00:Z","depth":0,"parameterNumber":3,"parameterNumberName":"V-component_of_WINDS"},"data":[0,0,0,0,0,0,0,0,0,0,0,0,0,0,0,0,0,0,0,0,0,0,0,0,0,0,0,0,0,0,0,0,0,0,0,0,0,0,0,0,0,0,0,0,0,0,0,0,0,0,0,0,0,0,0,0,0,0,3.0489,3.049,0,3.0596,3.0597,3.0599,3.0595,3.0594,3.0592,3.0591,3.0704,3.0709,3.0713,0,0,0,0,0,0,0,0,0,0,0,0,0,3.0284,3.0288,3.0489,3.049,3.0491,3.0596,3.0597,3.0599,3.0596,3.0594,3.0592,3.059,3.0703,3.0708,3.0713,0,0,0,0,0,0,0,0,0,0,0,0,0,3.038,3.0289,3.0488,3.0502,3.0504,3.0596,3.0597,3.0599,3.0596,3.0594,3.0591,3.0589,3.0701,3.0708,3.0714,3.08,0,0,3.0734,3.0737,0,0,0,0,0,0,0,0,3.0375,3.0388,3.0499,3.0501,3.0504,3.058,3.0567,3.0667,3.0597,3.0561,3.0591,3.0588,3.0665,3.0674,3.07,3.0805,3.081,3.0735,3.0739,3.0742,3.0744,0,0,0,0,0,0,0,3.0368,3.0383,3.0531,3.05,3.0504,3.0504,3.0515,3.0586,3.0625,3.0564,3.0564,3.0577,3.0666,3.0693,3.0702,3.0811,3.0735,3.0741,3.0745,3.0747,3.0994,3.0996,0,0,0,0,0,0,3.0358,3.0378,3.0528,3.0534,3.0433,3.051,3.0522,3.0558,3.0624,3.0631,3.0579,3.0576,3.0683,3.0695,3.0706,3.0811,3.0742,3.0748,3.0752,3.0991,3.0994,3.0997,0,0,0,0,0,0,3.0354,3.0372,3.0523,3.0456,3.0475,3.0515,3.0556,3.0561,3.0588,3.0634,3.0642,3.0599,3.0682,3.0697,3.0776,3.0815,3.0751,3.0757,3.0988,3.0992,3.0995,3.1021,0,0,0,0,0,0,3.0348,3.037,3.0402,3.0457,3.0479,3.0591,3.0558,3.0565,3.0599,3.0597,3.0656,3.0663,3.0681,3.0767,3.0783,3.0823,3.0762,3.0985,3.099,3.0994,3.1017,3.1026,3.1033,0,0,0,0,0,3.0341,3.0406,3.0404,3.0422,3.052,3.0593,3.0606,3.0624,3.0602,3.0636,3.0665,3.0661,3.0808,3.0775,3.0793,3.0836,3.0982,3.0988,3.0994,3.1014,3.1024,3.1033,0,0,0,0,0,0,3.0356,3.0413,3.0412,3.0496,3.0539,3.0592,3.0635,3.0634,3.0686,3.0682,3.0704,3.0717,3.0797,3.0824,3.0786,3.0923,3.0893,3.0902,3.0901,3.0912,3.0919,3.0911,3.0768,0,0,0,0,0,3.0368,3.0422,3.047,3.054,3.0562,3.0594,3.0627,3.0637,3.0684,3.0702,3.0738,3.0784,3.0841,3.0878,3.0932,3.1021,3.1035,3.106,3.1068,3.1074,3.1082,3.1132,3.1144,3.1016,3.1016,3.1016,0,0,3.0396,3.0434,3.0467,3.0544,3.0579,3.0635,3.061,3.067,3.0712,3.0712,3.0789,3.0817,3.087,3.0955,3.0994,3.098,3.112,3.1081,3.1086,3.1091,3.1139,3.1151,3.1162,3.102,3.1019,3.1018,0,0,3.0475,3.0509,3.0571,3.0606,3.0659,3.068,3.0695,3.0748,3.0767,3.0844,3.0845,3.0896,3.0993,3.1031,3.1063,3.1157,3.1155,3.1174,3.1215,3.1263,3.1274,3.1283,3.1317,3.1329,3.1182,3.1182,3.1182,0,3.0503,3.0586,3.0603,3.0664,3.0698,3.0699,3.0763,3.0797,3.0865,3.089,3.0873,3.0995,3.1031,3.1125,3.1148,3.1173,3.1192,3.1168,3.127,3.128,3.1289,3.1321,3.1334,3.1184,3.1184,3.1184,3.1184,0,3.0618,3.0676,3.072,3.0785,3.0824,3.0886,3.0914,3.0952,3.0959,3.0982,3.1062,3.1105,3.1169,3.1192,3.12,3.1287,3.1277,3.1265,3.1236,3.1302,3.1334,3.1346,3.1187,3.1186,3.1186,3.1185,0,0,3.071,3.0783,3.0799,3.0828,3.0887,3.0933,3.0995,3.1056,3.1089,3.1136,3.119,3.1272,3.1262,3.1298,3.131,3.1353,3.1425,3.1336,3.1338,3.1352,3.1526,3.1535,3.1549,3.1425,3.1427,3.1429,3.1522,0,3.0795,3.0904,3.0922,3.1018,3.1072,3.1075,3.1129,3.1172,3.1196,3.1246,3.1273,3.1331,3.1313,3.1335,3.1377,3.1407,3.1461,3.1401,3.1476,3.1479,3.1463,3.1565,3.1575,3.166,3.1534,3.1536,3.1537,0,3.0909,3.0958,3.106,3.1111,3.1135,3.1183,3.1241,3.1289,3.1338,3.1352,3.1393,3.14,3.1467,3.1434,3.1527,3.1486,3.1518,3.1538,3.1542,3.155,3.1512,3.1577,3.1687,3.17,3.1557,3.1555,3.1554,0,3.0966,3.1058,3.1131,3.1156,3.1218,3.1252,3.1279,3.1326,3.1362,3.1413,3.1436,3.1495,3.1527,3.1573,3.1597,3.1571,3.1688,3.1657,3.1703,3.1703,3.1728,3.1727,3.1846,3.1748,3.1748,3.1748,3.1747,0,3.106,3.1122,3.1157,3.1202,3.1272,3.1292,3.1362,3.1389,3.143,3.1481,3.1487,3.1536,3.1564,3.1617,3.1636,3.171,3.1725,3.1739,3.1744,3.1739,3.1737,3.1761,3.1756,3.1751,3.175,3.175,3.1749,0,3.1135,3.1161,3.1241,3.1292,3.1307,3.1356,3.1401,3.1446,3.1469,3.1534,3.1551,3.1589,3.1651,3.1679,3.1757,3.177,3.1855,3.1855,3.1838,3.184,3.1884,3.188,3.2024,3.2044,3.1932,3.1933,3.1934,0,3.1194,3.1241,3.1298,3.1332,3.136,3.1415,3.1451,3.1473,3.1511,3.157,3.1608,3.1671,3.1722,3.1822,3.1857,3.1917,3.1919,3.1965,3.1928,3.1922,3.1921,3.1918,3.1924,3.1972,3.1973,3.1974,3.1975,0,3.1294,3.1305,3.1356,3.1412,3.1455,3.1501,3.1545,3.1573,3.1603,3.1645,3.1708,3.1748,3.1827,3.189,3.1952,3.1982,3.1984,3.1986,3.2,3.1996,3.1985,3.1993,3.1857,3.1983,3.1982,3.1982,3.1981,3.1981,3.1364,3.1407,3.1453,3.151,3.1546,3.1587,3.1632,3.1661,3.1713,3.1778,3.1788,3.1856,3.1905,3.1989,3.2021,3.2076,3.2065,3.2085,3.209,3.2095,3.2098,3.1976,3.2087,3.2087,3.2087,3.2087,3.2087,0,3.1466,3.1495,3.1548,3.1609,3.1655,3.1651,3.1701,3.174,3.1799,3.1843,3.1893,3.1967,3.2028,3.2068,3.213,3.2166,3.2169,3.2182,3.218,3.2187,3.2104,3.2086,3.2178,3.2178,3.2178,3.2178,3.2178,3.2178,3.1524,3.1596,3.1612,3.1703,3.1733,3.1798,3.1827,3.1866,3.1901,3.1983,3.2033,3.2058,3.2102,3.2167,3.2223,3.2233,3.2257,3.227,3.228,3.2202,3.2193,3.2183,3.2167,3.2275,3.2275,3.2359,3.236,3.236]}]]